Weather History for Mobile, AL

Change the Weather History Date:

Saturday, December 8, 2012

  Actual Average Record
Temperature  
Mean Temperature 68 °F 54 °F  
Max Temperature 78 °F 64 °F 80 °F (1998)
Min Temperature 57 °F 43 °F 24 °F (1882)
Degree Days  
Heating Degree Days 0 12  
Month to date heating degree days 3 89  
Since 1 July heating degree days 316 347  
Cooling Degree Days 3 1  
Month to date cooling degree days 9 8  
Year to date cooling degree days 2706 2511  
Growing Degree Days 18 (Base 50)    
Moisture  
Dew Point 61 °F    
Average Humidity 79    
Maximum Humidity 100    
Minimum Humidity 57    
Precipitation  
Precipitation 0.02 in 0.16 in 2.18 in (1887)
Month to date precipitation 0.14 1.29  
Year to date precipitation 65.76 62.38  
Snow  
Snow 0.00 in 0.00 in 0.00 in (2002)
Month to date snowfall 0.0 0.0  
Since 1 July snowfall 0.0 0.0  
Snow Depth 0.00 in    
Sea Level Pressure  
Sea Level Pressure 29.98 in    
Wind  
Wind Speed 5 mph (SSE)    
Max Wind Speed 13 mph    
Max Gust Speed 17 mph    
Visibility 5 miles    
Events Fog , Rain    
T = Trace of Precipitation, MM = Missing Value Source: NWS Daily Summary

Daily Weather History Graph

Daily Weather History Graph

Search for Another Location

Airport:

Trip Planner

Search our weather history database for the weather conditions in past years. The results will help you decide how hot, cold, wet, or windy it might be!

Date:

Astronomy

Dec. 08, 2012 Rise Set
Actual Time 6:38 AM CST 4:51 PM CST
Civil Twilight 6:12 AM CST 5:18 PM CST
Nautical Twilight 5:42 AM CST 5:48 PM CST
Astronomical Twilight 5:12 AM CST 6:17 PM CST
Moon 1:20 AM CST (12/8) 1:06 PM CST (12/8)
Length of Visible Light 11h 06m
Length of Day
10h 13m
Waning Crescent, 28% of the Moon is Illuminated
Dec 8
Waning Crescent
Dec 13
New
Dec 19
First Quarter
Dec 28
Full
Jan 4
Last Quarter

Hourly Weather History & Observations

Time (CST) Temp. Dew Point Humidity Pressure Visibility Wind Dir Wind Speed Gust Speed Precip Events Conditions
12:56 AM 64.9 °F 63.0 °F 93% 29.94 in 7.0 mi East 6.9 mph - 0.00 in   Mostly Cloudy
1:19 AM 64.4 °F 62.6 °F 94% 29.95 in 4.0 mi ESE 6.9 mph - 0.00 in Rain Rain
1:56 AM 64.9 °F 63.0 °F 93% 29.94 in 8.0 mi East 8.1 mph - 0.02 in   Overcast
2:56 AM 64.9 °F 63.0 °F 93% 29.94 in 5.0 mi East 5.8 mph - N/A   Overcast
3:03 AM 64.4 °F 64.4 °F 100% 29.94 in 5.0 mi East 5.8 mph - N/A   Overcast
3:56 AM 64.9 °F 63.0 °F 93% 29.94 in 5.0 mi ESE 4.6 mph - 0.00 in   Overcast
4:56 AM 64.9 °F 64.0 °F 97% 29.94 in 5.0 mi East 4.6 mph - N/A   Overcast
5:56 AM 64.9 °F 64.0 °F 97% 29.96 in 2.5 mi ESE 4.6 mph - N/A   Overcast
6:03 AM 64.4 °F 64.4 °F 100% 29.97 in 1.0 mi ESE 5.8 mph - N/A   Overcast
6:07 AM 64.4 °F 64.4 °F 100% 29.97 in 0.8 mi SE 3.5 mph - N/A   Overcast
6:39 AM 64.4 °F 64.4 °F 100% 29.98 in 1.0 mi ESE 4.6 mph - N/A   Mist
6:56 AM 64.9 °F 64.0 °F 97% 29.98 in 1.8 mi ESE 5.8 mph - N/A   Overcast
7:41 AM 64.4 °F 64.4 °F 100% 30.00 in 0.8 mi SE 3.5 mph - N/A   Overcast
7:56 AM 64.9 °F 64.0 °F 97% 30.00 in 0.5 mi SE 3.5 mph - N/A Fog Fog
8:14 AM 64.4 °F 64.4 °F 100% 30.01 in 1.0 mi SE 3.5 mph - N/A   Overcast
8:32 AM 64.4 °F 64.4 °F 100% 30.01 in 0.8 mi SSE 4.6 mph - N/A   Overcast
8:56 AM 66.0 °F 64.0 °F 93% 30.00 in 0.5 mi SE 4.6 mph - N/A Fog Fog
9:05 AM 66.2 °F 64.4 °F 94% 30.01 in 2.0 mi SE 4.6 mph - N/A   Overcast
9:22 AM 66.2 °F 64.4 °F 94% 30.02 in 3.0 mi Calm Calm - N/A   Overcast
9:39 AM 66.2 °F 64.4 °F 94% 30.02 in 6.0 mi ESE 3.5 mph - N/A   Overcast
9:56 AM 68.0 °F 64.0 °F 87% 30.01 in 6.0 mi SSE 3.5 mph - 0.00 in Rain Light Rain
10:12 AM 69.8 °F 64.4 °F 83% 30.01 in 8.0 mi SE 5.8 mph - 0.00 in   Mostly Cloudy
10:56 AM 72.0 °F 62.1 °F 71% 29.99 in 10.0 mi SE 5.8 mph - 0.00 in   Mostly Cloudy
11:56 AM 72.0 °F 61.0 °F 68% 29.96 in 10.0 mi Calm Calm - N/A   Mostly Cloudy
12:20 PM 73.4 °F 60.8 °F 65% 29.96 in 10.0 mi South 5.8 mph - N/A   Mostly Cloudy
12:56 PM 75.9 °F 60.1 °F 58% 29.94 in 10.0 mi South 10.4 mph - N/A   Mostly Cloudy
1:56 PM 73.9 °F 57.9 °F 57% 29.93 in 10.0 mi WSW 3.5 mph - N/A   Scattered Clouds
2:56 PM 75.9 °F 59.0 °F 56% 29.93 in 10.0 mi South 5.8 mph - N/A   Scattered Clouds
3:56 PM 72.0 °F 59.0 °F 64% 29.94 in 10.0 mi South 11.5 mph - N/A   Scattered Clouds
4:56 PM 66.9 °F 57.0 °F 70% 29.95 in 10.0 mi South 5.8 mph - N/A   Scattered Clouds
5:56 PM 64.0 °F 57.9 °F 80% 29.97 in 10.0 mi South 5.8 mph - N/A   Scattered Clouds
6:56 PM 61.0 °F 57.9 °F 90% 30.00 in 10.0 mi South 5.8 mph - N/A   Scattered Clouds
7:34 PM 60.8 °F 57.2 °F 88% 30.01 in 3.0 mi South 5.8 mph - N/A   Scattered Clouds
7:37 PM 60.8 °F 57.2 °F 88% 30.01 in 1.8 mi South 6.9 mph - N/A   Mostly Cloudy
7:49 PM 60.8 °F 57.2 °F 88% 30.02 in 0.8 mi SSW 5.8 mph - N/A   Mist
7:56 PM 60.1 °F 57.9 °F 93% 30.01 in 0.2 mi South 4.6 mph - N/A Fog Fog
8:56 PM 60.1 °F 57.9 °F 93% 30.02 in 0.2 mi Calm Calm - N/A Fog Fog
9:56 PM 57.9 °F 57.0 °F 97% 30.01 in 0.2 mi South 3.5 mph - N/A Fog Fog
10:56 PM 59.0 °F 57.9 °F 96% 30.01 in 0.2 mi South 3.5 mph - N/A Fog Fog
11:56 PM 57.0 °F 55.0 °F 93% 30.01 in 0.2 mi Calm Calm - N/A Fog Fog